Location: Napoli
(40.8639°N, 14.2562°E)
Time: 14:30:41
(UTC+02:00)

ISS - Pass Details

Date: 21 May 2025
Orbit: 415 x 417 km, 51.6° (Epoch: 15 June)

Event Time Altitude Azimuth Distance (km) Brightness Sun altitude
Rises 22:18:15 0° 310° (NW) 2,360 1.7 -18.2°
Reaches altitude 10° 22:20:31 10° 322° (NW) 1,494 0.3 -18.5°
Maximum altitude 22:23:32 30° 26° (NNE) 770 -2.2 -18.8°
Enters shadow 22:24:33 25° 60° (ENE) 884 -2.2 -19.0°
